星链-36110(STARLINK-36110)

导读 | 豆包AI

STARLINK-36110是美国太空探索技术公司星链星座的卫星,于2025年12月7日发射升空,归属美国所有。它作为星链互联网星座的组成部分,主要承担全球低延迟宽带互联网覆盖任务,为地面偏远地区、移动载具等提供高速网络接入服务,进一步扩充了星链星座的在轨服务规模与覆盖能力。

Basic Information
目录编号:
66945
目录名称:
STARLINK-36110
国际标识:
2025-286W
轨道中心:
EARTH
卫星名称:
星链-36110
卫星全名:
星链-36110(STARLINK-36110)
卫星状态:
在轨 (已飞行143 天)
发射日期:
2025-12-07 UTC
国别 :
美国 (US)
星等 :
--
Orbit Information
数据来源 国际轨道数据 AOE轨道数据
星历时间 2026-04-29T01:32:50+0800
9小时前
查看轨道信息
2026-04-29T05:00:00+0800
6小时前
查看轨道信息
半长轴 6853.353km 6853.393km
偏心率 0.0001318 0.0001257
轨道倾角 53.158° 53.158°
近地点辐角 85.848° 75.251°
升交点赤经 126.341° 125.675°
平近点角 274.268° 357.785°
近地点 474.312km 474.394km
远地点 476.12km 476.118km
周期 94.105分钟 94.106分钟
每日圈数 15.301997 15.301866
Detailed Information
固有亮度:
5
最大亮度:
2.5
卫星平台:
Starlink V1.0
覆盖范围:
全球
运营商:
太空探索技术公司
运营商所在国:
美国
制造商(研发单位):
太空探索技术公司
制造商所在国:
美国
使用方式:
暂无
Satellite Introduction
Starlink 计划是 SpaceX 推出的全球卫星互联网项目,通过发射低轨道卫星,为全球尤其是偏远地区提供高速、低延迟的互联网服务。自 2019 年起,Starlink 已部署数千颗卫星,旨在缩小全球数字鸿沟,推动互联网普及。该项目还为军事、航空等行业提供通信支持,带来广泛经济效益。
2D Orbit Map
3D Orbit Map
Orbit Altitude Analysis Chart
Orbit Inclination Analysis Chart
Orbit Comprehensive Analysis Chart
View Comprehensive Chart